segment_id,date_local,uptime,ped_lft,ped_rgt,ped_total,bike_lft,bike_rgt,bike_total,car_lft,car_rgt,car_total,heavy_lft,heavy_rgt,heavy_total,v85,car_speed0,car_speed10,car_speed20,car_speed30,car_speed40,car_speed50,car_speed60,car_speed70
100024661,2017-10-01 00:00,1.0,,,,64,74,138,,,,,,,
100024661,2017-10-01 01:00,1.0,,,,68,58,126,,,,,,,
100024661,2017-10-01 02:00,1.0,,,,54,43,97,,,,,,,
100024661,2017-10-01 03:00,1.0,,,,36,25,61,,,,,,,
100024661,2017-10-01 04:00,1.0,,,,25,13,38,,,,,,,
100024661,2017-10-01 05:00,1.0,,,,18,15,33,,,,,,,
100024661,2017-10-01 06:00,1.0,,,,16,8,24,,,,,,,
100024661,2017-10-01 07:00,1.0,,,,25,8,33,,,,,,,
100024661,2017-10-01 08:00,1.0,,,,33,31,64,,,,,,,
100024661,2017-10-01 09:00,1.0,,,,37,25,62,,,,,,,
100024661,2017-10-01 10:00,1.0,,,,52,55,107,,,,,,,
100024661,2017-10-01 11:00,1.0,,,,59,55,114,,,,,,,
100024661,2017-10-01 12:00,1.0,,,,67,56,123,,,,,,,
100024661,2017-10-01 13:00,1.0,,,,87,72,159,,,,,,,
100024661,2017-10-01 14:00,1.0,,,,88,97,185,,,,,,,
100024661,2017-10-01 15:00,1.0,,,,109,115,224,,,,,,,
100024661,2017-10-01 16:00,1.0,,,,99,128,227,,,,,,,
100024661,2017-10-01 17:00,1.0,,,,115,122,237,,,,,,,
100024661,2017-10-01 18:00,1.0,,,,112,119,231,,,,,,,
100024661,2017-10-01 19:00,1.0,,,,101,117,218,,,,,,,
100024661,2017-10-01 20:00,1.0,,,,91,79,170,,,,,,,
100024661,2017-10-01 21:00,1.0,,,,46,69,115,,,,,,,
100024661,2017-10-01 22:00,1.0,,,,52,72,124,,,,,,,
100024661,2017-10-01 23:00,1.0,,,,52,43,95,,,,,,,
100024661,2017-10-02 00:00,1.0,,,,20,23,43,,,,,,,
100024661,2017-10-02 01:00,1.0,,,,20,18,38,,,,,,,
100024661,2017-10-02 02:00,1.0,,,,6,8,14,,,,,,,
100024661,2017-10-02 03:00,1.0,,,,3,8,11,,,,,,,
100024661,2017-10-02 04:00,1.0,,,,8,9,17,,,,,,,
100024661,2017-10-02 05:00,1.0,,,,19,22,41,,,,,,,
100024661,2017-10-02 06:00,1.0,,,,32,37,69,,,,,,,
100024661,2017-10-02 07:00,1.0,,,,75,124,199,,,,,,,
100024661,2017-10-02 08:00,1.0,,,,188,274,462,,,,,,,
100024661,2017-10-02 09:00,1.0,,,,268,322,590,,,,,,,
100024661,2017-10-02 10:00,1.0,,,,145,158,303,,,,,,,
100024661,2017-10-02 11:00,1.0,,,,138,139,277,,,,,,,
100024661,2017-10-02 12:00,1.0,,,,107,160,267,,,,,,,
100024661,2017-10-02 13:00,1.0,,,,84,107,191,,,,,,,
100024661,2017-10-02 14:00,1.0,,,,82,110,192,,,,,,,
100024661,2017-10-02 15:00,1.0,,,,110,91,201,,,,,,,
100024661,2017-10-02 16:00,1.0,,,,129,116,245,,,,,,,
100024661,2017-10-02 17:00,1.0,,,,222,153,375,,,,,,,
100024661,2017-10-02 18:00,1.0,,,,271,216,487,,,,,,,
100024661,2017-10-02 19:00,1.0,,,,174,223,397,,,,,,,
100024661,2017-10-02 20:00,1.0,,,,121,133,254,,,,,,,
100024661,2017-10-02 21:00,1.0,,,,76,67,143,,,,,,,
100024661,2017-10-02 22:00,1.0,,,,62,61,123,,,,,,,
100024661,2017-10-02 23:00,1.0,,,,44,41,85,,,,,,,
100024661,2017-10-03 00:00,1.0,,,,42,34,76,,,,,,,
100024661,2017-10-03 01:00,1.0,,,,25,34,59,,,,,,,
100024661,2017-10-03 02:00,1.0,,,,19,20,39,,,,,,,
100024661,2017-10-03 03:00,1.0,,,,19,16,35,,,,,,,
100024661,2017-10-03 04:00,1.0,,,,9,9,18,,,,,,,
100024661,2017-10-03 05:00,1.0,,,,12,2,14,,,,,,,
100024661,2017-10-03 06:00,1.0,,,,15,19,34,,,,,,,
100024661,2017-10-03 07:00,1.0,,,,24,14,38,,,,,,,
100024661,2017-10-03 08:00,1.0,,,,39,37,76,,,,,,,
100024661,2017-10-03 09:00,1.0,,,,75,57,132,,,,,,,
100024661,2017-10-03 10:00,1.0,,,,70,65,135,,,,,,,
100024661,2017-10-03 11:00,1.0,,,,76,88,164,,,,,,,
100024661,2017-10-03 12:00,1.0,,,,95,105,200,,,,,,,
100024661,2017-10-03 13:00,1.0,,,,120,95,215,,,,,,,
100024661,2017-10-03 14:00,1.0,,,,113,123,236,,,,,,,
100024661,2017-10-03 15:00,1.0,,,,136,119,255,,,,,,,
100024661,2017-10-03 16:00,1.0,,,,136,150,286,,,,,,,
100024661,2017-10-03 17:00,1.0,,,,168,152,320,,,,,,,
100024661,2017-10-03 18:00,1.0,,,,144,154,298,,,,,,,
100024661,2017-10-03 19:00,1.0,,,,116,161,277,,,,,,,
100024661,2017-10-03 20:00,1.0,,,,94,80,174,,,,,,,
100024661,2017-10-03 21:00,1.0,,,,89,82,171,,,,,,,
100024661,2017-10-03 22:00,1.0,,,,69,83,152,,,,,,,
100024661,2017-10-03 23:00,1.0,,,,56,58,114,,,,,,,
100024661,2017-10-04 00:00,1.0,,,,38,34,72,,,,,,,
100024661,2017-10-04 01:00,1.0,,,,17,22,39,,,,,,,
100024661,2017-10-04 02:00,1.0,,,,16,16,32,,,,,,,
100024661,2017-10-04 03:00,1.0,,,,2,5,7,,,,,,,
100024661,2017-10-04 04:00,1.0,,,,9,5,14,,,,,,,
100024661,2017-10-04 05:00,1.0,,,,12,30,42,,,,,,,
100024661,2017-10-04 06:00,1.0,,,,34,77,111,,,,,,,
100024661,2017-10-04 07:00,1.0,,,,150,273,423,,,,,,,
100024661,2017-10-04 08:00,1.0,,,,404,717,1121,,,,,,,
100024661,2017-10-04 09:00,1.0,,,,457,582,1039,,,,,,,
100024661,2017-10-04 10:00,1.0,,,,208,237,445,,,,,,,
100024661,2017-10-04 11:00,1.0,,,,181,163,344,,,,,,,
100024661,2017-10-04 12:00,1.0,,,,204,156,360,,,,,,,
100024661,2017-10-04 13:00,1.0,,,,182,216,398,,,,,,,
100024661,2017-10-04 14:00,1.0,,,,235,192,427,,,,,,,
100024661,2017-10-04 15:00,1.0,,,,312,250,562,,,,,,,
100024661,2017-10-04 16:00,1.0,,,,401,254,655,,,,,,,
100024661,2017-10-04 17:00,1.0,,,,462,343,805,,,,,,,
100024661,2017-10-04 18:00,1.0,,,,672,515,1187,,,,,,,
100024661,2017-10-04 19:00,1.0,,,,418,368,786,,,,,,,
100024661,2017-10-04 20:00,1.0,,,,169,204,373,,,,,,,
100024661,2017-10-04 21:00,1.0,,,,125,135,260,,,,,,,
100024661,2017-10-04 22:00,1.0,,,,94,115,209,,,,,,,
100024661,2017-10-04 23:00,1.0,,,,64,77,141,,,,,,,
100024661,2017-10-05 00:00,1.0,,,,40,39,79,,,,,,,
100024661,2017-10-05 01:00,1.0,,,,11,25,36,,,,,,,
100024661,2017-10-05 02:00,1.0,,,,13,10,23,,,,,,,
100024661,2017-10-05 03:00,1.0,,,,6,5,11,,,,,,,
100024661,2017-10-05 04:00,1.0,,,,5,5,10,,,,,,,
100024661,2017-10-05 05:00,1.0,,,,14,24,38,,,,,,,
100024661,2017-10-05 06:00,1.0,,,,19,42,61,,,,,,,
100024661,2017-10-05 07:00,1.0,,,,48,114,162,,,,,,,
100024661,2017-10-05 08:00,1.0,,,,134,280,414,,,,,,,
100024661,2017-10-05 09:00,1.0,,,,133,171,304,,,,,,,
100024661,2017-10-05 10:00,1.0,,,,60,89,149,,,,,,,
100024661,2017-10-05 11:00,1.0,,,,50,38,88,,,,,,,
100024661,2017-10-05 12:00,1.0,,,,43,33,76,,,,,,,
100024661,2017-10-05 13:00,1.0,,,,55,54,109,,,,,,,
100024661,2017-10-05 14:00,1.0,,,,98,79,177,,,,,,,
100024661,2017-10-05 15:00,1.0,,,,130,111,241,,,,,,,
100024661,2017-10-05 16:00,1.0,,,,133,81,214,,,,,,,
100024661,2017-10-05 17:00,1.0,,,,123,83,206,,,,,,,
100024661,2017-10-05 18:00,1.0,,,,203,147,350,,,,,,,
100024661,2017-10-05 19:00,1.0,,,,173,134,307,,,,,,,
100024661,2017-10-05 20:00,1.0,,,,86,79,165,,,,,,,
100024661,2017-10-05 21:00,1.0,,,,60,79,139,,,,,,,
100024661,2017-10-05 22:00,1.0,,,,46,53,99,,,,,,,
100024661,2017-10-05 23:00,1.0,,,,37,26,63,,,,,,,
100024661,2017-10-06 00:00,1.0,,,,28,25,53,,,,,,,
100024661,2017-10-06 01:00,1.0,,,,16,12,28,,,,,,,
100024661,2017-10-06 02:00,1.0,,,,11,7,18,,,,,,,
100024661,2017-10-06 03:00,1.0,,,,9,4,13,,,,,,,
100024661,2017-10-06 04:00,1.0,,,,3,10,13,,,,,,,
100024661,2017-10-06 05:00,1.0,,,,12,22,34,,,,,,,
100024661,2017-10-06 06:00,1.0,,,,32,59,91,,,,,,,
100024661,2017-10-06 07:00,1.0,,,,113,204,317,,,,,,,
100024661,2017-10-06 08:00,1.0,,,,267,536,803,,,,,,,
100024661,2017-10-06 09:00,1.0,,,,248,325,573,,,,,,,
100024661,2017-10-06 10:00,1.0,,,,124,146,270,,,,,,,
100024661,2017-10-06 11:00,1.0,,,,110,112,222,,,,,,,
100024661,2017-10-06 12:00,1.0,,,,116,134,250,,,,,,,
100024661,2017-10-06 13:00,1.0,,,,67,114,181,,,,,,,
100024661,2017-10-06 14:00,1.0,,,,158,119,277,,,,,,,
100024661,2017-10-06 15:00,1.0,,,,211,113,324,,,,,,,
100024661,2017-10-06 16:00,1.0,,,,294,203,497,,,,,,,
100024661,2017-10-06 17:00,1.0,,,,294,214,508,,,,,,,
100024661,2017-10-06 18:00,1.0,,,,339,285,624,,,,,,,
100024661,2017-10-06 19:00,1.0,,,,240,211,451,,,,,,,
100024661,2017-10-06 20:00,1.0,,,,143,122,265,,,,,,,
100024661,2017-10-06 21:00,1.0,,,,98,87,185,,,,,,,
100024661,2017-10-06 22:00,1.0,,,,63,94,157,,,,,,,
100024661,2017-10-06 23:00,1.0,,,,58,60,118,,,,,,,
100024661,2017-10-07 00:00,1.0,,,,57,58,115,,,,,,,
100024661,2017-10-07 01:00,1.0,,,,41,37,78,,,,,,,
100024661,2017-10-07 02:00,1.0,,,,29,27,56,,,,,,,
100024661,2017-10-07 03:00,1.0,,,,26,14,40,,,,,,,
100024661,2017-10-07 04:00,1.0,,,,16,11,27,,,,,,,
100024661,2017-10-07 05:00,1.0,,,,7,6,13,,,,,,,
100024661,2017-10-07 06:00,1.0,,,,13,15,28,,,,,,,
100024661,2017-10-07 07:00,1.0,,,,23,15,38,,,,,,,
100024661,2017-10-07 08:00,1.0,,,,27,33,60,,,,,,,
100024661,2017-10-07 09:00,1.0,,,,86,72,158,,,,,,,
100024661,2017-10-07 10:00,1.0,,,,73,62,135,,,,,,,
100024661,2017-10-07 11:00,1.0,,,,103,94,197,,,,,,,
100024661,2017-10-07 12:00,1.0,,,,127,123,250,,,,,,,
100024661,2017-10-07 13:00,1.0,,,,138,114,252,,,,,,,
100024661,2017-10-07 14:00,1.0,,,,144,152,296,,,,,,,
100024661,2017-10-07 15:00,1.0,,,,153,125,278,,,,,,,
100024661,2017-10-07 16:00,1.0,,,,98,115,213,,,,,,,
100024661,2017-10-07 17:00,1.0,,,,100,89,189,,,,,,,
100024661,2017-10-07 18:00,1.0,,,,89,107,196,,,,,,,
100024661,2017-10-07 19:00,1.0,,,,64,61,125,,,,,,,
100024661,2017-10-07 20:00,1.0,,,,43,57,100,,,,,,,
100024661,2017-10-07 21:00,1.0,,,,32,50,82,,,,,,,
100024661,2017-10-07 22:00,1.0,,,,31,35,66,,,,,,,
100024661,2017-10-07 23:00,1.0,,,,34,35,69,,,,,,,
100024661,2017-10-08 00:00,1.0,,,,30,31,61,,,,,,,
100024661,2017-10-08 01:00,1.0,,,,21,20,41,,,,,,,
100024661,2017-10-08 02:00,1.0,,,,15,17,32,,,,,,,
100024661,2017-10-08 03:00,1.0,,,,21,7,28,,,,,,,
100024661,2017-10-08 04:00,1.0,,,,12,8,20,,,,,,,
100024661,2017-10-08 05:00,1.0,,,,11,2,13,,,,,,,
100024661,2017-10-08 06:00,1.0,,,,6,6,12,,,,,,,
100024661,2017-10-08 07:00,1.0,,,,13,10,23,,,,,,,
100024661,2017-10-08 08:00,1.0,,,,25,10,35,,,,,,,
100024661,2017-10-08 09:00,1.0,,,,27,40,67,,,,,,,
100024661,2017-10-08 10:00,1.0,,,,54,52,106,,,,,,,
100024661,2017-10-08 11:00,1.0,,,,78,72,150,,,,,,,
100024661,2017-10-08 12:00,1.0,,,,98,91,189,,,,,,,
100024661,2017-10-08 13:00,1.0,,,,113,139,252,,,,,,,
100024661,2017-10-08 14:00,1.0,,,,160,149,309,,,,,,,
100024661,2017-10-08 15:00,1.0,,,,152,166,318,,,,,,,
100024661,2017-10-08 16:00,1.0,,,,153,162,315,,,,,,,
100024661,2017-10-08 17:00,1.0,,,,182,170,352,,,,,,,
100024661,2017-10-08 18:00,1.0,,,,173,160,333,,,,,,,
100024661,2017-10-08 19:00,1.0,,,,137,160,297,,,,,,,
100024661,2017-10-08 20:00,1.0,,,,84,90,174,,,,,,,
100024661,2017-10-08 21:00,1.0,,,,56,80,136,,,,,,,
100024661,2017-10-08 22:00,1.0,,,,60,61,121,,,,,,,
100024661,2017-10-08 23:00,1.0,,,,27,40,67,,,,,,,
100024661,2017-10-09 00:00,1.0,,,,23,30,53,,,,,,,
100024661,2017-10-09 01:00,1.0,,,,17,16,33,,,,,,,
100024661,2017-10-09 02:00,1.0,,,,9,11,20,,,,,,,
100024661,2017-10-09 03:00,1.0,,,,5,9,14,,,,,,,
100024661,2017-10-09 04:00,1.0,,,,10,4,14,,,,,,,
100024661,2017-10-09 05:00,1.0,,,,13,27,40,,,,,,,
100024661,2017-10-09 06:00,1.0,,,,46,87,133,,,,,,,
100024661,2017-10-09 07:00,1.0,,,,158,271,429,,,,,,,
100024661,2017-10-09 08:00,1.0,,,,387,763,1150,,,,,,,
100024661,2017-10-09 09:00,1.0,,,,477,623,1100,,,,,,,
100024661,2017-10-09 10:00,1.0,,,,243,228,471,,,,,,,
100024661,2017-10-09 11:00,1.0,,,,143,162,305,,,,,,,
100024661,2017-10-09 12:00,1.0,,,,193,191,384,,,,,,,
100024661,2017-10-09 13:00,1.0,,,,200,199,399,,,,,,,
100024661,2017-10-09 14:00,1.0,,,,272,225,497,,,,,,,
100024661,2017-10-09 15:00,1.0,,,,347,274,621,,,,,,,
100024661,2017-10-09 16:00,1.0,,,,328,217,545,,,,,,,
100024661,2017-10-09 17:00,1.0,,,,482,306,788,,,,,,,
100024661,2017-10-09 18:00,1.0,,,,622,437,1059,,,,,,,
100024661,2017-10-09 19:00,1.0,,,,390,338,728,,,,,,,
100024661,2017-10-09 20:00,1.0,,,,163,162,325,,,,,,,
100024661,2017-10-09 21:00,1.0,,,,126,125,251,,,,,,,
100024661,2017-10-09 22:00,1.0,,,,101,94,195,,,,,,,
100024661,2017-10-09 23:00,1.0,,,,52,56,108,,,,,,,
100024661,2017-10-10 00:00,1.0,,,,21,39,60,,,,,,,
100024661,2017-10-10 01:00,1.0,,,,16,17,33,,,,,,,
100024661,2017-10-10 02:00,1.0,,,,5,15,20,,,,,,,
100024661,2017-10-10 03:00,1.0,,,,4,7,11,,,,,,,
100024661,2017-10-10 04:00,1.0,,,,3,11,14,,,,,,,
100024661,2017-10-10 05:00,1.0,,,,9,28,37,,,,,,,
100024661,2017-10-10 06:00,1.0,,,,26,85,111,,,,,,,
100024661,2017-10-10 07:00,1.0,,,,102,184,286,,,,,,,
100024661,2017-10-10 08:00,1.0,,,,259,495,754,,,,,,,
100024661,2017-10-10 09:00,1.0,,,,343,450,793,,,,,,,
100024661,2017-10-10 10:00,1.0,,,,163,177,340,,,,,,,
100024661,2017-10-10 11:00,1.0,,,,81,151,232,,,,,,,
100024661,2017-10-10 12:00,1.0,,,,79,129,208,,,,,,,
100024661,2017-10-10 13:00,1.0,,,,158,156,314,,,,,,,
100024661,2017-10-10 14:00,1.0,,,,189,147,336,,,,,,,
100024661,2017-10-10 15:00,1.0,,,,256,199,455,,,,,,,
100024661,2017-10-10 16:00,1.0,,,,337,215,552,,,,,,,
100024661,2017-10-10 17:00,1.0,,,,405,252,657,,,,,,,
100024661,2017-10-10 18:00,1.0,,,,507,333,840,,,,,,,
100024661,2017-10-10 19:00,1.0,,,,320,263,583,,,,,,,
100024661,2017-10-10 20:00,1.0,,,,160,164,324,,,,,,,
100024661,2017-10-10 21:00,1.0,,,,118,141,259,,,,,,,
100024661,2017-10-10 22:00,1.0,,,,103,102,205,,,,,,,
100024661,2017-10-10 23:00,1.0,,,,66,69,135,,,,,,,
100024661,2017-10-11 00:00,1.0,,,,52,42,94,,,,,,,
100024661,2017-10-11 01:00,1.0,,,,14,10,24,,,,,,,
100024661,2017-10-11 02:00,1.0,,,,21,9,30,,,,,,,
100024661,2017-10-11 03:00,1.0,,,,11,13,24,,,,,,,
100024661,2017-10-11 04:00,1.0,,,,8,7,15,,,,,,,
100024661,2017-10-11 05:00,1.0,,,,15,27,42,,,,,,,
100024661,2017-10-11 06:00,1.0,,,,48,89,137,,,,,,,
100024661,2017-10-11 07:00,1.0,,,,130,237,367,,,,,,,
100024661,2017-10-11 08:00,1.0,,,,368,684,1052,,,,,,,
100024661,2017-10-11 09:00,1.0,,,,467,561,1028,,,,,,,
100024661,2017-10-11 10:00,1.0,,,,179,234,413,,,,,,,
100024661,2017-10-11 11:00,1.0,,,,163,171,334,,,,,,,
100024661,2017-10-11 12:00,1.0,,,,177,180,357,,,,,,,
100024661,2017-10-11 13:00,1.0,,,,159,154,313,,,,,,,
100024661,2017-10-11 14:00,1.0,,,,211,157,368,,,,,,,
100024661,2017-10-11 15:00,1.0,,,,293,245,538,,,,,,,
100024661,2017-10-11 16:00,1.0,,,,358,272,630,,,,,,,
100024661,2017-10-11 17:00,1.0,,,,477,312,789,,,,,,,
100024661,2017-10-11 18:00,1.0,,,,615,468,1083,,,,,,,
100024661,2017-10-11 19:00,1.0,,,,425,319,744,,,,,,,
100024661,2017-10-11 20:00,1.0,,,,212,223,435,,,,,,,
100024661,2017-10-11 21:00,1.0,,,,145,155,300,,,,,,,
100024661,2017-10-11 22:00,1.0,,,,94,146,240,,,,,,,
100024661,2017-10-11 23:00,1.0,,,,85,87,172,,,,,,,
100024661,2017-10-12 00:00,1.0,,,,50,74,124,,,,,,,
100024661,2017-10-12 01:00,1.0,,,,27,18,45,,,,,,,
100024661,2017-10-12 02:00,1.0,,,,16,15,31,,,,,,,
100024661,2017-10-12 03:00,1.0,,,,7,6,13,,,,,,,
100024661,2017-10-12 04:00,1.0,,,,5,4,9,,,,,,,
100024661,2017-10-12 05:00,1.0,,,,16,34,50,,,,,,,
100024661,2017-10-12 06:00,1.0,,,,49,86,135,,,,,,,
100024661,2017-10-12 07:00,1.0,,,,142,231,373,,,,,,,
100024661,2017-10-12 08:00,1.0,,,,298,618,916,,,,,,,
100024661,2017-10-12 09:00,1.0,,,,415,513,928,,,,,,,
100024661,2017-10-12 10:00,1.0,,,,178,260,438,,,,,,,
100024661,2017-10-12 11:00,1.0,,,,163,166,329,,,,,,,
100024661,2017-10-12 12:00,1.0,,,,188,179,367,,,,,,,
100024661,2017-10-12 13:00,1.0,,,,201,175,376,,,,,,,
100024661,2017-10-12 14:00,1.0,,,,195,207,402,,,,,,,
100024661,2017-10-12 15:00,1.0,,,,341,238,579,,,,,,,
100024661,2017-10-12 16:00,1.0,,,,399,251,650,,,,,,,
100024661,2017-10-12 17:00,1.0,,,,467,340,807,,,,,,,
100024661,2017-10-12 18:00,1.0,,,,568,458,1026,,,,,,,
100024661,2017-10-12 19:00,1.0,,,,349,354,703,,,,,,,
100024661,2017-10-12 20:00,1.0,,,,205,215,420,,,,,,,
100024661,2017-10-12 21:00,1.0,,,,156,153,309,,,,,,,
100024661,2017-10-12 22:00,1.0,,,,139,144,283,,,,,,,
100024661,2017-10-12 23:00,1.0,,,,93,108,201,,,,,,,
100024661,2017-10-13 00:00,1.0,,,,49,58,107,,,,,,,
100024661,2017-10-13 01:00,1.0,,,,35,25,60,,,,,,,
100024661,2017-10-13 02:00,1.0,,,,24,13,37,,,,,,,
100024661,2017-10-13 03:00,1.0,,,,20,15,35,,,,,,,
100024661,2017-10-13 04:00,1.0,,,,21,5,26,,,,,,,
100024661,2017-10-13 05:00,1.0,,,,9,32,41,,,,,,,
100024661,2017-10-13 06:00,1.0,,,,41,88,129,,,,,,,
100024661,2017-10-13 07:00,1.0,,,,125,236,361,,,,,,,
100024661,2017-10-13 08:00,1.0,,,,340,641,981,,,,,,,
100024661,2017-10-13 09:00,1.0,,,,400,566,966,,,,,,,
100024661,2017-10-13 10:00,1.0,,,,229,234,463,,,,,,,
100024661,2017-10-13 11:00,1.0,,,,187,176,363,,,,,,,
100024661,2017-10-13 12:00,1.0,,,,201,212,413,,,,,,,
100024661,2017-10-13 13:00,1.0,,,,285,209,494,,,,,,,
100024661,2017-10-13 14:00,1.0,,,,311,278,589,,,,,,,
100024661,2017-10-13 15:00,1.0,,,,380,313,693,,,,,,,
100024661,2017-10-13 16:00,1.0,,,,431,307,738,,,,,,,
100024661,2017-10-13 17:00,1.0,,,,464,324,788,,,,,,,
100024661,2017-10-13 18:00,1.0,,,,491,419,910,,,,,,,
100024661,2017-10-13 19:00,1.0,,,,351,325,676,,,,,,,
100024661,2017-10-13 20:00,1.0,,,,201,238,439,,,,,,,
100024661,2017-10-13 21:00,1.0,,,,164,166,330,,,,,,,
100024661,2017-10-13 22:00,1.0,,,,109,171,280,,,,,,,
100024661,2017-10-13 23:00,1.0,,,,88,142,230,,,,,,,
100024661,2017-10-14 00:00,1.0,,,,93,108,201,,,,,,,
100024661,2017-10-14 01:00,1.0,,,,62,85,147,,,,,,,
100024661,2017-10-14 02:00,1.0,,,,54,46,100,,,,,,,
100024661,2017-10-14 03:00,1.0,,,,35,29,64,,,,,,,
100024661,2017-10-14 04:00,1.0,,,,33,21,54,,,,,,,
100024661,2017-10-14 05:00,1.0,,,,15,15,30,,,,,,,
100024661,2017-10-14 06:00,1.0,,,,30,23,53,,,,,,,
100024661,2017-10-14 07:00,1.0,,,,35,27,62,,,,,,,
100024661,2017-10-14 08:00,1.0,,,,45,46,91,,,,,,,
100024661,2017-10-14 09:00,1.0,,,,121,78,199,,,,,,,
100024661,2017-10-14 10:00,1.0,,,,149,98,247,,,,,,,
100024661,2017-10-14 11:00,1.0,,,,140,134,274,,,,,,,
100024661,2017-10-14 12:00,1.0,,,,156,149,305,,,,,,,
100024661,2017-10-14 13:00,1.0,,,,173,203,376,,,,,,,
100024661,2017-10-14 14:00,1.0,,,,213,217,430,,,,,,,
100024661,2017-10-14 15:00,1.0,,,,219,213,432,,,,,,,
100024661,2017-10-14 16:00,1.0,,,,206,221,427,,,,,,,
100024661,2017-10-14 17:00,1.0,,,,248,252,500,,,,,,,
100024661,2017-10-14 18:00,1.0,,,,232,291,523,,,,,,,
100024661,2017-10-14 19:00,1.0,,,,201,251,452,,,,,,,
100024661,2017-10-14 20:00,1.0,,,,131,184,315,,,,,,,
100024661,2017-10-14 21:00,1.0,,,,94,121,215,,,,,,,
100024661,2017-10-14 22:00,1.0,,,,94,129,223,,,,,,,
100024661,2017-10-14 23:00,1.0,,,,98,117,215,,,,,,,
100024661,2017-10-15 00:00,1.0,,,,89,125,214,,,,,,,
100024661,2017-10-15 01:00,1.0,,,,76,78,154,,,,,,,
100024661,2017-10-15 02:00,1.0,,,,55,57,112,,,,,,,
100024661,2017-10-15 03:00,1.0,,,,44,22,66,,,,,,,
100024661,2017-10-15 04:00,1.0,,,,30,30,60,,,,,,,
100024661,2017-10-15 05:00,1.0,,,,27,25,52,,,,,,,
100024661,2017-10-15 06:00,1.0,,,,28,18,46,,,,,,,
100024661,2017-10-15 07:00,1.0,,,,35,21,56,,,,,,,
100024661,2017-10-15 08:00,1.0,,,,29,40,69,,,,,,,
100024661,2017-10-15 09:00,1.0,,,,74,52,126,,,,,,,
100024661,2017-10-15 10:00,1.0,,,,113,75,188,,,,,,,
100024661,2017-10-15 11:00,1.0,,,,144,147,291,,,,,,,
100024661,2017-10-15 12:00,1.0,,,,142,150,292,,,,,,,
100024661,2017-10-15 13:00,1.0,,,,190,214,404,,,,,,,
100024661,2017-10-15 14:00,1.0,,,,230,224,454,,,,,,,
100024661,2017-10-15 15:00,1.0,,,,247,242,489,,,,,,,
100024661,2017-10-15 16:00,1.0,,,,238,218,456,,,,,,,
100024661,2017-10-15 17:00,1.0,,,,247,230,477,,,,,,,
100024661,2017-10-15 18:00,1.0,,,,265,274,539,,,,,,,
100024661,2017-10-15 19:00,1.0,,,,172,178,350,,,,,,,
100024661,2017-10-15 20:00,1.0,,,,103,111,214,,,,,,,
100024661,2017-10-15 21:00,1.0,,,,85,99,184,,,,,,,
100024661,2017-10-15 22:00,1.0,,,,88,101,189,,,,,,,
100024661,2017-10-15 23:00,1.0,,,,45,64,109,,,,,,,
100024661,2017-10-16 00:00,1.0,,,,43,43,86,,,,,,,
100024661,2017-10-16 01:00,1.0,,,,10,22,32,,,,,,,
100024661,2017-10-16 02:00,1.0,,,,8,11,19,,,,,,,
100024661,2017-10-16 03:00,1.0,,,,7,5,12,,,,,,,
100024661,2017-10-16 04:00,1.0,,,,9,6,15,,,,,,,
100024661,2017-10-16 05:00,1.0,,,,17,42,59,,,,,,,
100024661,2017-10-16 06:00,1.0,,,,45,95,140,,,,,,,
100024661,2017-10-16 07:00,1.0,,,,192,299,491,,,,,,,
100024661,2017-10-16 08:00,1.0,,,,439,885,1324,,,,,,,
100024661,2017-10-16 09:00,1.0,,,,527,664,1191,,,,,,,
100024661,2017-10-16 10:00,1.0,,,,229,272,501,,,,,,,
100024661,2017-10-16 11:00,1.0,,,,202,186,388,,,,,,,
100024661,2017-10-16 12:00,1.0,,,,213,202,415,,,,,,,
100024661,2017-10-16 13:00,1.0,,,,255,252,507,,,,,,,
100024661,2017-10-16 14:00,1.0,,,,328,282,610,,,,,,,
100024661,2017-10-16 15:00,1.0,,,,443,328,771,,,,,,,
100024661,2017-10-16 16:00,1.0,,,,486,353,839,,,,,,,
100024661,2017-10-16 17:00,1.0,,,,701,502,1203,,,,,,,
100024661,2017-10-16 18:00,1.0,,,,766,551,1317,,,,,,,
100024661,2017-10-16 19:00,1.0,,,,435,388,823,,,,,,,
100024661,2017-10-16 20:00,1.0,,,,244,248,492,,,,,,,
100024661,2017-10-16 21:00,1.0,,,,166,166,332,,,,,,,
100024661,2017-10-16 22:00,1.0,,,,158,146,304,,,,,,,
100024661,2017-10-16 23:00,1.0,,,,79,90,169,,,,,,,
100024661,2017-10-17 00:00,1.0,,,,38,59,97,,,,,,,
100024661,2017-10-17 01:00,1.0,,,,23,22,45,,,,,,,
100024661,2017-10-17 02:00,1.0,,,,8,10,18,,,,,,,
100024661,2017-10-17 03:00,1.0,,,,7,6,13,,,,,,,
100024661,2017-10-17 04:00,1.0,,,,9,4,13,,,,,,,
100024661,2017-10-17 05:00,1.0,,,,19,39,58,,,,,,,
100024661,2017-10-17 06:00,1.0,,,,56,100,156,,,,,,,
100024661,2017-10-17 07:00,1.0,,,,183,346,529,,,,,,,
100024661,2017-10-17 08:00,1.0,,,,495,868,1363,,,,,,,
100024661,2017-10-17 09:00,1.0,,,,553,715,1268,,,,,,,
100024661,2017-10-17 10:00,1.0,,,,294,286,580,,,,,,,
100024661,2017-10-17 11:00,1.0,,,,206,216,422,,,,,,,
100024661,2017-10-17 12:00,1.0,,,,226,260,486,,,,,,,
100024661,2017-10-17 13:00,1.0,,,,249,238,487,,,,,,,
100024661,2017-10-17 14:00,1.0,,,,331,303,634,,,,,,,
100024661,2017-10-17 15:00,1.0,,,,459,379,838,,,,,,,
100024661,2017-10-17 16:00,1.0,,,,523,346,869,,,,,,,
100024661,2017-10-17 17:00,1.0,,,,674,478,1152,,,,,,,
100024661,2017-10-17 18:00,1.0,,,,819,625,1444,,,,,,,
100024661,2017-10-17 19:00,1.0,,,,501,478,979,,,,,,,
100024661,2017-10-17 20:00,1.0,,,,239,225,464,,,,,,,
100024661,2017-10-17 21:00,1.0,,,,185,221,406,,,,,,,
100024661,2017-10-17 22:00,1.0,,,,141,170,311,,,,,,,
100024661,2017-10-17 23:00,1.0,,,,99,112,211,,,,,,,
100024661,2017-10-18 00:00,1.0,,,,66,52,118,,,,,,,
100024661,2017-10-18 01:00,1.0,,,,22,27,49,,,,,,,
100024661,2017-10-18 02:00,1.0,,,,14,22,36,,,,,,,
100024661,2017-10-18 03:00,1.0,,,,8,9,17,,,,,,,
100024661,2017-10-18 04:00,1.0,,,,8,3,11,,,,,,,
100024661,2017-10-18 05:00,1.0,,,,25,42,67,,,,,,,
100024661,2017-10-18 06:00,1.0,,,,45,98,143,,,,,,,
100024661,2017-10-18 07:00,1.0,,,,181,330,511,,,,,,,
100024661,2017-10-18 08:00,1.0,,,,448,803,1251,,,,,,,
100024661,2017-10-18 09:00,1.0,,,,513,663,1176,,,,,,,
100024661,2017-10-18 10:00,1.0,,,,235,296,531,,,,,,,
100024661,2017-10-18 11:00,1.0,,,,223,186,409,,,,,,,
100024661,2017-10-18 12:00,1.0,,,,236,205,441,,,,,,,
100024661,2017-10-18 13:00,1.0,,,,235,222,457,,,,,,,
100024661,2017-10-18 14:00,1.0,,,,311,259,570,,,,,,,
100024661,2017-10-18 15:00,1.0,,,,351,307,658,,,,,,,
100024661,2017-10-18 16:00,1.0,,,,526,311,837,,,,,,,
100024661,2017-10-18 17:00,1.0,,,,604,405,1009,,,,,,,
100024661,2017-10-18 18:00,1.0,,,,752,608,1360,,,,,,,
100024661,2017-10-18 19:00,1.0,,,,449,443,892,,,,,,,
100024661,2017-10-18 20:00,1.0,,,,193,251,444,,,,,,,
100024661,2017-10-18 21:00,1.0,,,,149,188,337,,,,,,,
100024661,2017-10-18 22:00,1.0,,,,145,147,292,,,,,,,
100024661,2017-10-18 23:00,1.0,,,,111,89,200,,,,,,,
100024661,2017-10-19 00:00,1.0,,,,50,78,128,,,,,,,
100024661,2017-10-19 01:00,1.0,,,,37,26,63,,,,,,,
100024661,2017-10-19 02:00,1.0,,,,14,21,35,,,,,,,
100024661,2017-10-19 03:00,1.0,,,,9,6,15,,,,,,,
100024661,2017-10-19 04:00,1.0,,,,13,2,15,,,,,,,
100024661,2017-10-19 05:00,1.0,,,,18,39,57,,,,,,,
100024661,2017-10-19 06:00,1.0,,,,49,98,147,,,,,,,
100024661,2017-10-19 07:00,1.0,,,,171,317,488,,,,,,,
100024661,2017-10-19 08:00,1.0,,,,446,773,1219,,,,,,,
100024661,2017-10-19 09:00,1.0,,,,495,648,1143,,,,,,,
100024661,2017-10-19 10:00,1.0,,,,212,266,478,,,,,,,
100024661,2017-10-19 11:00,1.0,,,,223,200,423,,,,,,,
100024661,2017-10-19 12:00,1.0,,,,220,201,421,,,,,,,
100024661,2017-10-19 13:00,1.0,,,,197,226,423,,,,,,,
100024661,2017-10-19 14:00,1.0,,,,281,263,544,,,,,,,
100024661,2017-10-19 15:00,1.0,,,,352,322,674,,,,,,,
100024661,2017-10-19 16:00,1.0,,,,473,307,780,,,,,,,
100024661,2017-10-19 17:00,1.0,,,,608,434,1042,,,,,,,
100024661,2017-10-19 18:00,1.0,,,,722,550,1272,,,,,,,